Year,Month,Day,Hour,Minute,Value (Times are PST for temperature in C)
2012,06,25,00,00,10.70
2012,06,25,00,01,10.60
2012,06,25,00,02,10.60
2012,06,25,00,03,10.60
2012,06,25,00,04,10.60
2012,06,25,00,05,10.60
2012,06,25,00,06,10.60
2012,06,25,00,07,10.60
2012,06,25,00,08,10.60
2012,06,25,00,09,10.50
2012,06,25,00,10,10.40
2012,06,25,00,11,10.40
2012,06,25,00,12,10.40
2012,06,25,00,13,10.40
2012,06,25,00,14,10.40
2012,06,25,00,15,10.30
2012,06,25,00,16,10.30
2012,06,25,00,17,10.30
2012,06,25,00,18,10.20
2012,06,25,00,19,10.20
2012,06,25,00,20,10.20
2012,06,25,00,21,10.20
2012,06,25,00,22,10.10
2012,06,25,00,23,10.10
2012,06,25,00,24,10.10
2012,06,25,00,25,10.10
2012,06,25,00,26,10.10
2012,06,25,00,27,10.00
2012,06,25,00,28,9.90
2012,06,25,00,29,9.90
2012,06,25,00,30,9.90
2012,06,25,00,31,9.90
2012,06,25,00,32,9.90
2012,06,25,00,33,9.90
2012,06,25,00,34,9.90
2012,06,25,00,35,9.90
2012,06,25,00,36,9.90
2012,06,25,00,37,9.90
2012,06,25,00,38,9.90
2012,06,25,00,39,9.90
2012,06,25,00,40,9.90
2012,06,25,00,41,9.90
2012,06,25,00,42,9.90
2012,06,25,00,43,9.90
2012,06,25,00,44,9.90
2012,06,25,00,45,9.90
2012,06,25,00,46,9.90
2012,06,25,00,47,9.90
2012,06,25,00,48,9.90
2012,06,25,00,49,9.90
2012,06,25,00,50,9.90
2012,06,25,00,51,9.90
2012,06,25,00,52,9.90
2012,06,25,00,53,9.90
2012,06,25,00,54,9.90
2012,06,25,00,55,9.90
2012,06,25,00,56,9.90
2012,06,25,00,57,9.90
2012,06,25,00,58,9.80
2012,06,25,00,59,9.80
2012,06,25,01,00,9.80
2012,06,25,01,01,9.80
2012,06,25,01,02,9.80
2012,06,25,01,03,9.80
2012,06,25,01,04,9.80
2012,06,25,01,05,9.80
2012,06,25,01,06,9.70
2012,06,25,01,07,9.70
2012,06,25,01,08,9.70
2012,06,25,01,09,9.70
2012,06,25,01,10,9.70
2012,06,25,01,11,9.70
2012,06,25,01,12,9.70
2012,06,25,01,13,9.70
2012,06,25,01,14,9.70
2012,06,25,01,15,9.70
2012,06,25,01,16,9.60
2012,06,25,01,17,9.60
2012,06,25,01,18,9.60
2012,06,25,01,19,9.60
2012,06,25,01,20,9.50
2012,06,25,01,21,9.50
2012,06,25,01,22,9.50
2012,06,25,01,23,9.50
2012,06,25,01,24,9.40
2012,06,25,01,25,9.40
2012,06,25,01,26,9.40
2012,06,25,01,27,9.30
2012,06,25,01,28,9.30
2012,06,25,01,29,9.30
2012,06,25,01,30,9.30
2012,06,25,01,31,9.20
2012,06,25,01,32,9.20
2012,06,25,01,33,9.20
2012,06,25,01,34,9.20
2012,06,25,01,35,9.20
2012,06,25,01,36,9.20
2012,06,25,01,37,9.20
2012,06,25,01,38,9.20
2012,06,25,01,39,9.20
2012,06,25,01,40,9.20
2012,06,25,01,41,9.20
2012,06,25,01,42,9.20
2012,06,25,01,43,9.20
2012,06,25,01,44,9.20
2012,06,25,01,45,9.20
2012,06,25,01,46,9.20
2012,06,25,01,47,9.20
2012,06,25,01,48,9.20
2012,06,25,01,49,9.20
2012,06,25,01,50,9.20
2012,06,25,01,51,9.20
2012,06,25,01,52,9.20
2012,06,25,01,53,9.20
2012,06,25,01,54,9.10
2012,06,25,01,55,9.10
2012,06,25,01,56,9.10
2012,06,25,01,57,9.10
2012,06,25,01,58,9.00
2012,06,25,01,59,9.00
2012,06,25,02,00,9.00
2012,06,25,02,01,9.00
2012,06,25,02,02,8.90
2012,06,25,02,03,8.90
2012,06,25,02,04,8.90
2012,06,25,02,05,8.90
2012,06,25,02,06,8.80
2012,06,25,02,07,8.80
2012,06,25,02,08,8.80
2012,06,25,02,09,8.80
2012,06,25,02,10,8.80
2012,06,25,02,11,8.80
2012,06,25,02,12,8.80
2012,06,25,02,13,8.80
2012,06,25,02,14,8.80
2012,06,25,02,15,8.70
2012,06,25,02,16,8.70
2012,06,25,02,17,8.70
2012,06,25,02,18,8.70
2012,06,25,02,19,8.70
2012,06,25,02,20,8.70
2012,06,25,02,21,8.70
2012,06,25,02,22,8.70
2012,06,25,02,23,8.70
2012,06,25,02,24,8.70
2012,06,25,02,25,8.70
2012,06,25,02,26,8.70
2012,06,25,02,27,8.70
2012,06,25,02,28,8.60
2012,06,25,02,29,8.60
2012,06,25,02,30,8.60
2012,06,25,02,31,8.60
2012,06,25,02,32,8.60
2012,06,25,02,33,8.60
2012,06,25,02,34,8.50
2012,06,25,02,35,8.50
2012,06,25,02,36,8.50
2012,06,25,02,37,8.50
2012,06,25,02,38,8.50
2012,06,25,02,39,8.50
2012,06,25,02,40,8.50
2012,06,25,02,41,8.50
2012,06,25,02,42,8.50
2012,06,25,02,43,8.50
2012,06,25,02,44,8.50
2012,06,25,02,45,8.40
2012,06,25,02,46,8.40
2012,06,25,02,47,8.40
2012,06,25,02,48,8.40
2012,06,25,02,49,8.40
2012,06,25,02,50,8.40
2012,06,25,02,51,8.40
2012,06,25,02,52,8.40
2012,06,25,02,53,8.40
2012,06,25,02,54,8.30
2012,06,25,02,55,8.30
2012,06,25,02,56,8.30
2012,06,25,02,57,8.30
2012,06,25,02,58,8.30
2012,06,25,02,59,8.30
2012,06,25,03,00,8.30
2012,06,25,03,01,8.30
2012,06,25,03,02,8.30
2012,06,25,03,03,8.30
2012,06,25,03,04,8.40
2012,06,25,03,05,8.40
2012,06,25,03,06,8.40
2012,06,25,03,07,8.40
2012,06,25,03,08,8.40
2012,06,25,03,09,8.30
2012,06,25,03,10,8.30
2012,06,25,03,11,8.30
2012,06,25,03,12,8.30
2012,06,25,03,13,8.30
2012,06,25,03,14,8.30
2012,06,25,03,15,8.20
2012,06,25,03,16,8.20
2012,06,25,03,17,8.20
2012,06,25,03,18,8.20
2012,06,25,03,19,8.20
2012,06,25,03,20,8.20
2012,06,25,03,21,8.20
2012,06,25,03,22,8.20
2012,06,25,03,23,8.20
2012,06,25,03,24,8.20
2012,06,25,03,25,8.20
2012,06,25,03,26,8.20
2012,06,25,03,27,8.20
2012,06,25,03,28,8.20
2012,06,25,03,29,8.20
2012,06,25,03,30,8.20
2012,06,25,03,31,8.20
2012,06,25,03,32,8.20
2012,06,25,03,33,8.20
2012,06,25,03,34,8.20
2012,06,25,03,35,8.20
2012,06,25,03,36,8.20
2012,06,25,03,37,8.20
2012,06,25,03,38,8.20
2012,06,25,03,39,8.20
2012,06,25,03,40,8.20
2012,06,25,03,41,8.10
2012,06,25,03,42,8.10
2012,06,25,03,43,8.10
2012,06,25,03,44,8.10
2012,06,25,03,45,8.10
2012,06,25,03,46,8.10
2012,06,25,03,47,8.10
2012,06,25,03,48,8.10
2012,06,25,03,49,8.10
2012,06,25,03,50,8.10
2012,06,25,03,51,8.10
2012,06,25,03,52,8.10
2012,06,25,03,53,8.20
2012,06,25,03,54,8.20
2012,06,25,03,55,8.20
2012,06,25,03,56,8.20
2012,06,25,03,57,8.20
2012,06,25,03,58,8.20
2012,06,25,03,59,8.20
2012,06,25,04,00,8.20
2012,06,25,04,01,8.20
2012,06,25,04,02,8.10
2012,06,25,04,03,8.10
2012,06,25,04,04,8.10
2012,06,25,04,05,8.10
2012,06,25,04,06,8.10
2012,06,25,04,07,8.00
2012,06,25,04,08,8.00
2012,06,25,04,09,8.00
2012,06,25,04,10,8.00
2012,06,25,04,11,8.00
2012,06,25,04,12,8.00
2012,06,25,04,13,8.00
2012,06,25,04,14,8.00
2012,06,25,04,15,8.00
2012,06,25,04,16,8.00
2012,06,25,04,17,8.00
2012,06,25,04,18,8.00
2012,06,25,04,19,8.00
2012,06,25,04,20,7.90
2012,06,25,04,21,7.90
2012,06,25,04,22,7.90
2012,06,25,04,23,7.90
2012,06,25,04,24,7.90
2012,06,25,04,25,7.90
2012,06,25,04,26,7.90
2012,06,25,04,27,7.90
2012,06,25,04,28,7.90
2012,06,25,04,29,7.90
2012,06,25,04,30,7.90
2012,06,25,04,31,7.90
2012,06,25,04,32,7.90
2012,06,25,04,33,7.90
2012,06,25,04,34,7.80
2012,06,25,04,35,7.80
2012,06,25,04,36,7.80
2012,06,25,04,37,7.80
2012,06,25,04,38,7.80
2012,06,25,04,39,7.80
2012,06,25,04,40,7.80
2012,06,25,04,41,7.80
2012,06,25,04,42,7.80
2012,06,25,04,43,7.80
2012,06,25,04,44,7.80
2012,06,25,04,45,7.80
2012,06,25,04,46,7.80
2012,06,25,04,47,7.80
2012,06,25,04,48,7.70
2012,06,25,04,49,7.70
2012,06,25,04,50,7.70
2012,06,25,04,51,7.80
2012,06,25,04,52,7.80
2012,06,25,04,53,7.80
2012,06,25,04,54,7.80
2012,06,25,04,55,7.80
2012,06,25,04,56,7.80
2012,06,25,04,57,7.80
2012,06,25,04,58,7.80
2012,06,25,04,59,7.80
2012,06,25,05,00,7.80
2012,06,25,05,01,7.80
2012,06,25,05,02,7.80
2012,06,25,05,03,7.80
2012,06,25,05,04,7.80
2012,06,25,05,05,7.80
2012,06,25,05,06,7.80
2012,06,25,05,07,7.80
2012,06,25,05,08,7.80
2012,06,25,05,09,7.80
2012,06,25,05,10,7.80
2012,06,25,05,11,7.80
2012,06,25,05,12,7.80
2012,06,25,05,13,7.80
2012,06,25,05,14,7.90
2012,06,25,05,15,7.90
2012,06,25,05,16,7.90
2012,06,25,05,17,8.00
2012,06,25,05,18,8.00
2012,06,25,05,19,8.00
2012,06,25,05,20,8.00
2012,06,25,05,21,8.00
2012,06,25,05,22,7.90
2012,06,25,05,23,7.90
2012,06,25,05,24,7.90
2012,06,25,05,25,7.90
2012,06,25,05,26,7.80
2012,06,25,05,27,7.80
2012,06,25,05,28,7.80
2012,06,25,05,29,7.80
2012,06,25,05,30,7.80
2012,06,25,05,31,7.80
2012,06,25,05,32,7.80
2012,06,25,05,33,7.80
2012,06,25,05,34,7.80
2012,06,25,05,35,7.80
2012,06,25,05,36,7.80
2012,06,25,05,37,7.80
2012,06,25,05,38,7.80
2012,06,25,05,39,7.80
2012,06,25,05,40,7.80
2012,06,25,05,41,7.80
2012,06,25,05,42,7.80
2012,06,25,05,43,7.80
2012,06,25,05,44,7.80
2012,06,25,05,45,7.80
2012,06,25,05,46,7.80
2012,06,25,05,47,7.80
2012,06,25,05,48,7.80
2012,06,25,05,49,7.80
2012,06,25,05,50,7.80
2012,06,25,05,51,7.70
2012,06,25,05,52,7.70
2012,06,25,05,53,7.70
2012,06,25,05,54,7.70
2012,06,25,05,55,7.70
2012,06,25,05,56,7.80
2012,06,25,05,57,7.80
2012,06,25,05,58,7.80
2012,06,25,05,59,7.80
2012,06,25,06,00,7.80
2012,06,25,06,01,7.90
2012,06,25,06,02,7.90
2012,06,25,06,03,7.90
2012,06,25,06,04,8.00
2012,06,25,06,05,8.00
2012,06,25,06,06,8.00
2012,06,25,06,07,8.10
2012,06,25,06,08,8.10
2012,06,25,06,09,8.10
2012,06,25,06,10,8.20
2012,06,25,06,11,8.20
2012,06,25,06,12,8.20
2012,06,25,06,13,8.20
2012,06,25,06,14,8.20
2012,06,25,06,15,8.30
2012,06,25,06,16,8.30
2012,06,25,06,17,8.30
2012,06,25,06,18,8.40
2012,06,25,06,19,8.40
2012,06,25,06,20,8.50
2012,06,25,06,21,8.50
2012,06,25,06,22,8.60
2012,06,25,06,23,8.70
2012,06,25,06,24,8.80
2012,06,25,06,25,8.90
2012,06,25,06,26,8.90
2012,06,25,06,27,9.00
2012,06,25,06,28,9.00
2012,06,25,06,29,9.10
2012,06,25,06,30,9.20
2012,06,25,06,31,9.20
2012,06,25,06,32,9.20
2012,06,25,06,33,9.30
2012,06,25,06,34,9.30
2012,06,25,06,35,9.40
2012,06,25,06,36,9.40
2012,06,25,06,37,9.40
2012,06,25,06,38,9.40
2012,06,25,06,39,9.50
2012,06,25,06,40,9.60
2012,06,25,06,41,9.60
2012,06,25,06,42,9.70
2012,06,25,06,43,9.80
2012,06,25,06,44,9.80
2012,06,25,06,45,9.90
2012,06,25,06,46,9.90
2012,06,25,06,47,10.00
2012,06,25,06,48,10.10
2012,06,25,06,49,10.10
2012,06,25,06,50,10.20
2012,06,25,06,51,10.20
2012,06,25,06,52,10.30
2012,06,25,06,53,10.40
2012,06,25,06,54,10.40
2012,06,25,06,55,10.50
2012,06,25,06,56,10.60
2012,06,25,06,57,10.70
2012,06,25,06,58,10.80
2012,06,25,06,59,10.90
2012,06,25,07,00,10.90
2012,06,25,07,01,10.90
2012,06,25,07,02,10.90
2012,06,25,07,03,11.00
2012,06,25,07,04,11.10
2012,06,25,07,05,11.10
2012,06,25,07,06,11.10
2012,06,25,07,07,11.20
2012,06,25,07,08,11.30
2012,06,25,07,09,11.40
2012,06,25,07,10,11.40
2012,06,25,07,11,11.50
2012,06,25,07,12,11.60
2012,06,25,07,13,11.60
2012,06,25,07,14,11.60
2012,06,25,07,15,11.70
2012,06,25,07,16,11.70
2012,06,25,07,17,11.80
2012,06,25,07,18,11.80
2012,06,25,07,19,11.80
2012,06,25,07,20,11.80
2012,06,25,07,21,11.80
2012,06,25,07,22,11.80
2012,06,25,07,23,11.80
2012,06,25,07,24,11.80
2012,06,25,07,25,11.90
2012,06,25,07,26,11.90
2012,06,25,07,27,11.90
2012,06,25,07,28,11.90
2012,06,25,07,29,12.00
2012,06,25,07,30,12.00
2012,06,25,07,31,12.10
2012,06,25,07,32,12.10
2012,06,25,07,33,12.20
2012,06,25,07,34,12.30
2012,06,25,07,35,12.30
2012,06,25,07,36,12.40
2012,06,25,07,37,12.50
2012,06,25,07,38,12.60
2012,06,25,07,39,12.70
2012,06,25,07,40,12.80
2012,06,25,07,41,12.90
2012,06,25,07,42,13.10
2012,06,25,07,43,13.30
2012,06,25,07,44,13.50
2012,06,25,07,45,13.60
2012,06,25,07,46,13.70
2012,06,25,07,47,13.80
2012,06,25,07,48,13.90
2012,06,25,07,49,14.00
2012,06,25,07,50,14.20
2012,06,25,07,51,14.20
2012,06,25,07,52,14.40
2012,06,25,07,53,14.50
2012,06,25,07,54,14.50
2012,06,25,07,55,14.50
2012,06,25,07,56,14.60
2012,06,25,07,57,14.60
2012,06,25,07,58,14.70
2012,06,25,07,59,14.80
2012,06,25,08,00,14.80
2012,06,25,08,01,14.80
2012,06,25,08,02,14.80
2012,06,25,08,03,14.80
2012,06,25,08,04,14.80
2012,06,25,08,05,14.80
2012,06,25,08,06,14.80
2012,06,25,08,07,14.80
2012,06,25,08,08,14.90
2012,06,25,08,09,14.90
2012,06,25,08,10,14.90
2012,06,25,08,11,15.00
2012,06,25,08,12,15.00
2012,06,25,08,13,15.00
2012,06,25,08,14,15.00
2012,06,25,08,15,15.00
2012,06,25,08,16,15.00
2012,06,25,08,17,15.10
2012,06,25,08,18,15.10
2012,06,25,08,19,15.10
2012,06,25,08,20,15.20
2012,06,25,08,21,15.20
2012,06,25,08,22,15.20
2012,06,25,08,23,15.30
2012,06,25,08,24,15.30
2012,06,25,08,25,15.30
2012,06,25,08,26,15.30
2012,06,25,08,27,15.30
2012,06,25,08,28,15.40
2012,06,25,08,29,15.40
2012,06,25,08,30,15.50
2012,06,25,08,31,15.50
2012,06,25,08,32,15.60
2012,06,25,08,33,15.60
2012,06,25,08,34,15.60
2012,06,25,08,35,15.60
2012,06,25,08,36,15.70
2012,06,25,08,37,15.70
2012,06,25,08,38,15.70
2012,06,25,08,39,15.70
2012,06,25,08,40,15.70
2012,06,25,08,41,15.70
2012,06,25,08,42,15.70
2012,06,25,08,43,15.60
2012,06,25,08,44,15.60
2012,06,25,08,45,15.60
2012,06,25,08,46,15.50
2012,06,25,08,47,15.50
2012,06,25,08,48,15.50
2012,06,25,08,49,15.60
2012,06,25,08,50,15.60
2012,06,25,08,51,15.60
2012,06,25,08,52,15.60
2012,06,25,08,53,15.60
2012,06,25,08,54,15.60
2012,06,25,08,55,15.60
2012,06,25,08,56,15.60
2012,06,25,08,57,15.70
2012,06,25,08,58,15.80
2012,06,25,08,59,15.80
2012,06,25,09,00,15.80
2012,06,25,09,01,15.90
2012,06,25,09,02,16.00
2012,06,25,09,03,16.10
2012,06,25,09,04,16.10
2012,06,25,09,05,16.20
2012,06,25,09,06,16.20
2012,06,25,09,07,16.30
2012,06,25,09,08,16.30
2012,06,25,09,09,16.30
2012,06,25,09,10,16.20
2012,06,25,09,11,16.10
2012,06,25,09,12,16.00
2012,06,25,09,13,15.90
2012,06,25,09,14,15.70
2012,06,25,09,15,15.50
2012,06,25,09,16,15.40
2012,06,25,09,17,15.30
2012,06,25,09,18,15.20
2012,06,25,09,19,15.20
2012,06,25,09,20,15.30
2012,06,25,09,21,15.30
2012,06,25,09,22,15.30
2012,06,25,09,23,15.30
2012,06,25,09,24,15.20
2012,06,25,09,25,15.00
2012,06,25,09,26,14.90
2012,06,25,09,27,14.80
2012,06,25,09,28,14.80
2012,06,25,09,29,14.80
2012,06,25,09,30,14.80
2012,06,25,09,31,14.80
2012,06,25,09,32,14.80
2012,06,25,09,33,14.80
2012,06,25,09,34,14.80
2012,06,25,09,35,14.70
2012,06,25,09,36,14.70
2012,06,25,09,37,14.80
2012,06,25,09,38,14.70
2012,06,25,09,39,14.80
2012,06,25,09,40,14.80
2012,06,25,09,41,14.80
2012,06,25,09,42,14.80
2012,06,25,09,43,14.80
2012,06,25,09,44,14.80
2012,06,25,09,45,14.80
2012,06,25,09,46,14.80
2012,06,25,09,47,14.80
2012,06,25,09,48,14.90
2012,06,25,09,49,14.90
2012,06,25,09,50,14.90
2012,06,25,09,51,14.90
2012,06,25,09,52,15.00
2012,06,25,09,53,15.00
2012,06,25,09,54,15.00
2012,06,25,09,55,15.00
2012,06,25,09,56,15.10
2012,06,25,09,57,15.10
2012,06,25,09,58,15.00
2012,06,25,09,59,15.00
2012,06,25,10,00,15.00
2012,06,25,10,01,15.10
2012,06,25,10,02,15.20
2012,06,25,10,03,15.20
2012,06,25,10,04,15.20
2012,06,25,10,05,15.20
2012,06,25,10,06,15.20
2012,06,25,10,07,15.20
2012,06,25,10,08,15.30
2012,06,25,10,09,15.30
2012,06,25,10,10,15.30
2012,06,25,10,11,15.30
2012,06,25,10,12,15.30
2012,06,25,10,13,15.30
2012,06,25,10,14,15.30
2012,06,25,10,15,15.40
2012,06,25,10,16,15.40
2012,06,25,10,17,15.40
2012,06,25,10,18,15.40
2012,06,25,10,19,15.50
2012,06,25,10,20,15.50
2012,06,25,10,21,15.50
2012,06,25,10,22,15.40
2012,06,25,10,23,15.40
2012,06,25,10,24,15.50
2012,06,25,10,25,15.60
2012,06,25,10,26,15.70
2012,06,25,10,27,15.70
2012,06,25,10,28,15.70
2012,06,25,10,29,15.60
2012,06,25,10,30,15.60
2012,06,25,10,31,15.50
2012,06,25,10,32,15.50
2012,06,25,10,33,15.50
2012,06,25,10,34,15.50
2012,06,25,10,35,15.60
2012,06,25,10,36,15.60
2012,06,25,10,37,15.70
2012,06,25,10,38,15.80
2012,06,25,10,39,15.80
2012,06,25,10,40,16.00
2012,06,25,10,41,16.10
2012,06,25,10,42,16.10
2012,06,25,10,43,16.20
2012,06,25,10,44,16.20
2012,06,25,10,45,16.30
2012,06,25,10,46,16.40
2012,06,25,10,47,16.40
2012,06,25,10,48,16.30
2012,06,25,10,49,16.30
2012,06,25,10,50,16.30
2012,06,25,10,51,16.30
2012,06,25,10,52,16.30
2012,06,25,10,53,16.30
2012,06,25,10,54,16.30
2012,06,25,10,55,16.30
2012,06,25,10,56,16.30
2012,06,25,10,57,16.30
2012,06,25,10,58,16.20
2012,06,25,10,59,16.20
2012,06,25,11,00,16.10
2012,06,25,11,01,16.10
2012,06,25,11,02,16.10
2012,06,25,11,03,16.10
2012,06,25,11,04,16.10
2012,06,25,11,05,16.10
2012,06,25,11,06,16.20
2012,06,25,11,07,16.20
2012,06,25,11,08,16.30
2012,06,25,11,09,16.40
2012,06,25,11,10,16.40
2012,06,25,11,11,16.50
2012,06,25,11,12,16.60
2012,06,25,11,13,16.60
2012,06,25,11,14,16.60
2012,06,25,11,15,16.60
2012,06,25,11,16,16.60
2012,06,25,11,17,16.60
2012,06,25,11,18,16.60
2012,06,25,11,19,16.60
2012,06,25,11,20,16.60
2012,06,25,11,21,16.70
2012,06,25,11,22,16.70
2012,06,25,11,23,16.70
2012,06,25,11,24,16.80
2012,06,25,11,25,16.90
2012,06,25,11,26,17.00
2012,06,25,11,27,17.00
2012,06,25,11,28,17.10
2012,06,25,11,29,17.20
2012,06,25,11,30,17.30
2012,06,25,11,31,17.30
2012,06,25,11,32,17.30
2012,06,25,11,33,17.40
2012,06,25,11,34,17.50
2012,06,25,11,35,17.60
2012,06,25,11,36,17.70
2012,06,25,11,37,17.80
2012,06,25,11,38,17.90
2012,06,25,11,39,18.10
2012,06,25,11,40,18.20
2012,06,25,11,41,18.10
2012,06,25,11,42,18.10
2012,06,25,11,43,18.10
2012,06,25,11,44,18.10
2012,06,25,11,45,18.20
2012,06,25,11,46,18.20
2012,06,25,11,47,18.10
2012,06,25,11,48,18.10
2012,06,25,11,49,18.10
2012,06,25,11,50,18.10
2012,06,25,11,51,18.20
2012,06,25,11,52,18.20
2012,06,25,11,53,18.40
2012,06,25,11,54,18.50
2012,06,25,11,55,18.70
2012,06,25,11,56,18.90
2012,06,25,11,57,18.90
2012,06,25,11,58,18.90
2012,06,25,11,59,19.00
2012,06,25,12,00,18.90
2012,06,25,12,01,18.80
2012,06,25,12,02,18.70
2012,06,25,12,03,18.70
2012,06,25,12,04,18.80
2012,06,25,12,05,18.80
2012,06,25,12,06,18.90
2012,06,25,12,07,18.80
2012,06,25,12,08,18.90
2012,06,25,12,09,18.90
2012,06,25,12,10,19.00
2012,06,25,12,11,19.10
2012,06,25,12,12,19.20
2012,06,25,12,13,19.20
2012,06,25,12,14,19.20
2012,06,25,12,15,19.10
2012,06,25,12,16,19.10
2012,06,25,12,17,18.90
2012,06,25,12,18,18.70
2012,06,25,12,19,18.60
2012,06,25,12,20,18.60
2012,06,25,12,21,18.60
2012,06,25,12,22,18.60
2012,06,25,12,23,18.60
2012,06,25,12,24,18.40
2012,06,25,12,25,18.20
2012,06,25,12,26,18.10
2012,06,25,12,27,18.00
2012,06,25,12,28,17.90
2012,06,25,12,29,17.90
2012,06,25,12,30,17.90
2012,06,25,12,31,17.90
2012,06,25,12,32,17.90
2012,06,25,12,33,17.90
2012,06,25,12,34,17.90
2012,06,25,12,35,18.00
2012,06,25,12,36,18.10
2012,06,25,12,37,18.20
2012,06,25,12,38,18.20
2012,06,25,12,39,18.20
2012,06,25,12,40,18.30
2012,06,25,12,41,18.40
2012,06,25,12,42,18.50
2012,06,25,12,43,18.50
2012,06,25,12,44,18.60
2012,06,25,12,45,18.60
2012,06,25,12,46,18.50
2012,06,25,12,47,18.50
2012,06,25,12,48,18.50
2012,06,25,12,49,18.40
2012,06,25,12,50,18.40
2012,06,25,12,51,18.50
2012,06,25,12,52,18.60
2012,06,25,12,53,18.70
2012,06,25,12,54,18.70
2012,06,25,12,55,18.70
2012,06,25,12,56,18.70
2012,06,25,12,57,18.80
2012,06,25,12,58,18.80
2012,06,25,12,59,18.90
2012,06,25,13,00,18.80
2012,06,25,13,01,18.70
2012,06,25,13,02,18.60
2012,06,25,13,03,18.60
2012,06,25,13,04,18.50
2012,06,25,13,05,18.50
2012,06,25,13,06,18.50
2012,06,25,13,07,18.50
2012,06,25,13,08,18.60
2012,06,25,13,09,18.70
2012,06,25,13,10,18.70
2012,06,25,13,11,18.70
2012,06,25,13,12,18.70
2012,06,25,13,13,18.80
2012,06,25,13,14,18.80
2012,06,25,13,15,18.90
2012,06,25,13,16,19.00
2012,06,25,13,17,19.10
2012,06,25,13,18,19.10
2012,06,25,13,19,19.10
2012,06,25,13,20,19.10
2012,06,25,13,21,19.10
2012,06,25,13,22,19.00
2012,06,25,13,23,18.90
2012,06,25,13,24,19.00
2012,06,25,13,25,19.10
2012,06,25,13,26,19.10
2012,06,25,13,27,19.00
2012,06,25,13,28,18.90
2012,06,25,13,29,18.90
2012,06,25,13,30,18.90
2012,06,25,13,31,18.90
2012,06,25,13,32,18.90
2012,06,25,13,33,18.90
2012,06,25,13,34,18.90
2012,06,25,13,35,18.90
2012,06,25,13,36,18.90
2012,06,25,13,37,18.90
2012,06,25,13,38,18.80
2012,06,25,13,39,18.70
2012,06,25,13,40,18.60
2012,06,25,13,41,18.40
2012,06,25,13,42,18.20
2012,06,25,13,43,18.10
2012,06,25,13,44,18.00
2012,06,25,13,45,17.90
2012,06,25,13,46,17.70
2012,06,25,13,47,17.50
2012,06,25,13,48,17.30
2012,06,25,13,49,17.10
2012,06,25,13,50,17.00
2012,06,25,13,51,16.80
2012,06,25,13,52,16.80
2012,06,25,13,53,16.80
2012,06,25,13,54,16.70
2012,06,25,13,55,16.70
2012,06,25,13,56,16.70
2012,06,25,13,57,16.80
2012,06,25,13,58,16.90
2012,06,25,13,59,17.00
2012,06,25,14,00,17.10
2012,06,25,14,01,17.20
2012,06,25,14,02,17.30
2012,06,25,14,03,17.30
2012,06,25,14,04,17.30
2012,06,25,14,05,17.40
2012,06,25,14,06,17.40
2012,06,25,14,07,17.50
2012,06,25,14,08,17.70
2012,06,25,14,09,17.60
2012,06,25,14,10,17.60
2012,06,25,14,11,17.60
2012,06,25,14,12,17.60
2012,06,25,14,13,17.70
2012,06,25,14,14,17.80
2012,06,25,14,15,17.90
2012,06,25,14,16,17.90
2012,06,25,14,17,18.00
2012,06,25,14,18,18.10
2012,06,25,14,19,18.20
2012,06,25,14,20,18.10
2012,06,25,14,21,17.90
2012,06,25,14,22,17.90
2012,06,25,14,23,17.90
2012,06,25,14,24,17.90
2012,06,25,14,25,17.90
2012,06,25,14,26,17.90
2012,06,25,14,27,17.90
2012,06,25,14,28,17.90
2012,06,25,14,29,17.90
2012,06,25,14,30,17.90
2012,06,25,14,31,17.90
2012,06,25,14,32,17.90
2012,06,25,14,33,17.90
2012,06,25,14,34,18.00
2012,06,25,14,35,18.10
2012,06,25,14,36,18.10
2012,06,25,14,37,18.00
2012,06,25,14,38,17.90
2012,06,25,14,39,17.90
2012,06,25,14,40,17.90
2012,06,25,14,41,17.90
2012,06,25,14,42,17.90
2012,06,25,14,43,17.90
2012,06,25,14,44,18.00
2012,06,25,14,45,18.10
2012,06,25,14,46,18.10
2012,06,25,14,47,18.10
2012,06,25,14,48,18.20
2012,06,25,14,49,18.40
2012,06,25,14,50,18.40
2012,06,25,14,51,18.40
2012,06,25,14,52,18.40
2012,06,25,14,53,18.40
2012,06,25,14,54,18.40
2012,06,25,14,55,18.30
2012,06,25,14,56,18.30
2012,06,25,14,57,18.30
2012,06,25,14,58,18.40
2012,06,25,14,59,18.50
2012,06,25,15,00,18.60
2012,06,25,15,01,18.60
2012,06,25,15,02,18.70
2012,06,25,15,03,18.60
2012,06,25,15,04,18.70
2012,06,25,15,05,18.80
2012,06,25,15,06,18.90
2012,06,25,15,07,19.10
2012,06,25,15,08,19.10
2012,06,25,15,09,19.00
2012,06,25,15,10,18.90
2012,06,25,15,11,18.90
2012,06,25,15,12,18.90
2012,06,25,15,13,18.90
2012,06,25,15,14,18.90
2012,06,25,15,15,18.90
2012,06,25,15,16,18.90
2012,06,25,15,17,18.90
2012,06,25,15,18,18.80
2012,06,25,15,19,18.80
2012,06,25,15,20,18.80
2012,06,25,15,21,18.80
2012,06,25,15,22,18.90
2012,06,25,15,23,18.90
2012,06,25,15,24,18.90
2012,06,25,15,25,18.90
2012,06,25,15,26,18.90
2012,06,25,15,27,18.80
2012,06,25,15,28,18.80
2012,06,25,15,29,18.90
2012,06,25,15,30,18.90
2012,06,25,15,31,18.90
2012,06,25,15,32,18.90
2012,06,25,15,33,19.00
2012,06,25,15,34,19.10
2012,06,25,15,35,19.10
2012,06,25,15,36,19.10
2012,06,25,15,37,19.20
2012,06,25,15,38,19.30
2012,06,25,15,39,19.30
2012,06,25,15,40,19.30
2012,06,25,15,41,19.30
2012,06,25,15,42,19.30
2012,06,25,15,43,19.30
2012,06,25,15,44,19.40
2012,06,25,15,45,19.40
2012,06,25,15,46,19.40
2012,06,25,15,47,19.40
2012,06,25,15,48,19.30
2012,06,25,15,49,19.20
2012,06,25,15,50,19.10
2012,06,25,15,51,19.10
2012,06,25,15,52,19.20
2012,06,25,15,53,19.20
2012,06,25,15,54,19.20
2012,06,25,15,55,19.20
2012,06,25,15,56,19.10
2012,06,25,15,57,19.10
2012,06,25,15,58,19.10
2012,06,25,15,59,19.10
2012,06,25,16,00,19.00
2012,06,25,16,01,18.90
2012,06,25,16,02,18.90
2012,06,25,16,03,19.10
2012,06,25,16,04,19.10
2012,06,25,16,05,19.10
2012,06,25,16,06,19.10
2012,06,25,16,07,19.10
2012,06,25,16,08,19.10
2012,06,25,16,09,19.10
2012,06,25,16,10,19.00
2012,06,25,16,11,19.00
2012,06,25,16,12,19.00
2012,06,25,16,13,18.90
2012,06,25,16,14,18.90
2012,06,25,16,15,18.90
2012,06,25,16,16,18.90
2012,06,25,16,17,18.90
2012,06,25,16,18,18.90
2012,06,25,16,19,19.00
2012,06,25,16,20,19.10
2012,06,25,16,21,19.10
2012,06,25,16,22,19.10
2012,06,25,16,23,19.20
2012,06,25,16,24,19.20
2012,06,25,16,25,19.20
2012,06,25,16,26,19.20
2012,06,25,16,27,19.30
2012,06,25,16,28,19.30
2012,06,25,16,29,19.30
2012,06,25,16,30,19.30
2012,06,25,16,31,19.30
2012,06,25,16,32,19.30
2012,06,25,16,33,19.30
2012,06,25,16,34,19.30
2012,06,25,16,35,19.10
2012,06,25,16,36,19.10
2012,06,25,16,37,19.10
2012,06,25,16,38,19.10
2012,06,25,16,39,19.00
2012,06,25,16,40,18.90
2012,06,25,16,41,18.90
2012,06,25,16,42,18.90
2012,06,25,16,43,18.90
2012,06,25,16,44,18.90
2012,06,25,16,45,18.90
2012,06,25,16,46,19.10
2012,06,25,16,47,19.10
2012,06,25,16,48,19.10
2012,06,25,16,49,19.10
2012,06,25,16,50,19.10
2012,06,25,16,51,19.10
2012,06,25,16,52,19.00
2012,06,25,16,53,18.90
2012,06,25,16,54,19.00
2012,06,25,16,55,19.10
2012,06,25,16,56,19.10
2012,06,25,16,57,19.10
2012,06,25,16,58,19.10
2012,06,25,16,59,19.00
2012,06,25,17,00,18.90
2012,06,25,17,01,18.90
2012,06,25,17,02,18.90
2012,06,25,17,03,18.90
2012,06,25,17,04,18.90
2012,06,25,17,05,18.90
2012,06,25,17,06,18.90
2012,06,25,17,07,18.90
2012,06,25,17,08,19.00
2012,06,25,17,09,19.10
2012,06,25,17,10,19.10
2012,06,25,17,11,19.10
2012,06,25,17,12,19.10
2012,06,25,17,13,19.10
2012,06,25,17,14,19.10
2012,06,25,17,15,19.10
2012,06,25,17,16,19.10
2012,06,25,17,17,19.10
2012,06,25,17,18,19.00
2012,06,25,17,19,19.00
2012,06,25,17,20,18.90
2012,06,25,17,21,18.90
2012,06,25,17,22,18.90
2012,06,25,17,23,18.90
2012,06,25,17,24,18.90
2012,06,25,17,25,18.90
2012,06,25,17,26,18.80
2012,06,25,17,27,18.80
2012,06,25,17,28,18.80
2012,06,25,17,29,18.80
2012,06,25,17,30,18.70
2012,06,25,17,31,18.70
2012,06,25,17,32,18.60
2012,06,25,17,33,18.50
2012,06,25,17,34,18.50
2012,06,25,17,35,18.40